Weather History for Wheeler AAF, HI

Change the Weather History Date:

Friday, November 16, 2012

  Actual Average Record
Temperature  
Mean Temperature 70 °F -  
Max Temperature 75 °F 76 °F 82 °F (2006)
Min Temperature 64 °F 65 °F 62 °F (2010)
Cooling Degree Days 4    
Growing Degree Days 20 (Base 50)    
Moisture  
Dew Point 63 °F    
Average Humidity 84    
Maximum Humidity 94    
Minimum Humidity 57    
Precipitation  
Precipitation 0.13 in - - ()
Sea Level Pressure  
Sea Level Pressure 30.08 in    
Wind  
Wind Speed 5 mph (NE)    
Max Wind Speed 22 mph    
Max Gust Speed 28 mph    
Visibility 9 miles    
Events Rain    
Averages and records for this station are not official NWS values.
T = Trace of Precipitation, MM = Missing Value Source: NWS Daily Summary

Daily Weather History Graph

Daily Weather History Graph

Search for Another Location

Airport:

Trip Planner

Search our weather history database for the weather conditions in past years. The results will help you decide how hot, cold, wet, or windy it might be!

Date:

Astronomy

Nov. 16, 2012 Rise Set
Actual Time 6:44 AM HST 5:49 PM HST
Civil Twilight 6:20 AM HST 6:13 PM HST
Nautical Twilight 5:53 AM HST 6:40 PM HST
Astronomical Twilight 5:27 AM HST 7:06 PM HST
Moon 9:44 AM HST (11/16) 9:05 PM HST (11/16)
Length of Visible Light 11h 52m
Length of Day
11h 05m
Waxing Crescent, 13% of the Moon is Illuminated
Nov 16
Waxing Crescent
Nov 20
First Quarter
Nov 28
Full
Dec 6
Last Quarter
Dec 12
New

Hourly Weather History & Observations

Time (HST) Temp. Dew Point Humidity Pressure Visibility Wind Dir Wind Speed Gust Speed Precip Events Conditions
12:12 AM 66.2 °F 62.6 °F 88% 30.09 in 4.0 mi WNW 5.8 mph - N/A Rain Rain
12:14 AM 66.2 °F 62.6 °F 88% 30.09 in 4.0 mi WNW 5.8 mph - N/A Rain Light Rain
12:31 AM 64.4 °F 62.6 °F 94% 30.09 in 8.0 mi WNW 4.6 mph - N/A   Light Drizzle
12:49 AM 66.2 °F 62.6 °F 88% 30.09 in 8.0 mi North 3.5 mph - N/A Rain Light Rain
12:55 AM 66.2 °F 63.5 °F 91% 30.09 in 6.0 mi Calm Calm - 0.02 in Rain Light Rain
1:33 AM 64.4 °F 62.6 °F 94% 30.07 in 10.0 mi WNW 6.9 mph - N/A   Scattered Clouds
1:42 AM 64.4 °F 62.6 °F 94% 30.07 in 10.0 mi West 5.8 mph - N/A   Light Drizzle
1:51 AM 64.4 °F 62.6 °F 94% 30.07 in 10.0 mi NW 5.8 mph - N/A   Scattered Clouds
1:55 AM 65.5 °F 63.0 °F 92% 30.07 in 10.0 mi NNW 4.6 mph - 0.01 in   Partly Cloudy
2:02 AM 66.2 °F 62.6 °F 88% 30.06 in 10.0 mi NNW 3.5 mph - N/A   Light Drizzle
2:28 AM 66.2 °F 62.6 °F 88% 30.06 in 9.0 mi East 4.6 mph - N/A   Overcast
2:31 AM 66.2 °F 62.6 °F 88% 30.06 in 9.0 mi East 8.1 mph - N/A   Light Drizzle
2:35 AM 66.2 °F 62.6 °F 88% 30.06 in 6.0 mi ENE 5.8 mph - N/A   Light Drizzle
2:36 AM 66.2 °F 62.6 °F 88% 30.06 in 6.0 mi ENE 4.6 mph - N/A   Light Drizzle
2:42 AM 66.2 °F 62.6 °F 88% 30.06 in 5.0 mi ENE 3.5 mph - N/A Rain Light Rain
2:52 AM 66.2 °F 62.6 °F 88% 30.06 in 9.0 mi Calm Calm - N/A   Light Drizzle
2:55 AM 66.0 °F 63.1 °F 90% 30.06 in 10.0 mi Calm Calm - 0.01 in   Light Drizzle
3:11 AM 66.2 °F 62.6 °F 88% 30.05 in 10.0 mi WNW 4.6 mph - N/A   Mostly Cloudy
3:30 AM 64.4 °F 62.6 °F 94% 30.05 in 9.0 mi NNW 4.6 mph - N/A   Drizzle
3:35 AM 64.4 °F 62.6 °F 94% 30.05 in 9.0 mi NW 4.6 mph - N/A   Light Drizzle
3:45 AM 66.2 °F 62.6 °F 88% 30.05 in 8.0 mi Calm Calm - N/A   Light Drizzle
3:51 AM 66.2 °F 62.6 °F 88% 30.05 in 7.0 mi Calm Calm - N/A   Light Drizzle
3:54 AM 66.2 °F 62.6 °F 88% 30.05 in 8.0 mi NE 3.5 mph - N/A   Light Drizzle
3:55 AM 65.5 °F 63.0 °F 92% 30.05 in 9.0 mi NNE 3.5 mph - 0.01 in   Light Drizzle
3:57 AM 66.2 °F 62.6 °F 88% 30.05 in 10.0 mi Calm Calm - N/A   Mostly Cloudy
3:59 AM 66.2 °F 62.6 °F 88% 30.05 in 10.0 mi Calm Calm - N/A   Mostly Cloudy
4:01 AM 66.2 °F 62.6 °F 88% 30.05 in 10.0 mi Calm Calm - N/A   Mostly Cloudy
4:02 AM 66.2 °F 62.6 °F 88% 30.05 in 9.0 mi Calm Calm - N/A Rain Light Rain
4:05 AM 66.2 °F 62.6 °F 88% 30.05 in 7.0 mi Calm Calm - N/A   Light Drizzle
4:14 AM 66.2 °F 62.6 °F 88% 30.05 in 8.0 mi Calm Calm - N/A   Light Drizzle
4:17 AM 66.2 °F 62.6 °F 88% 30.06 in 10.0 mi Calm Calm - N/A   Mostly Cloudy
4:18 AM 66.2 °F 62.6 °F 88% 30.06 in 9.0 mi Calm Calm - N/A   Mostly Cloudy
4:20 AM 66.2 °F 62.6 °F 88% 30.06 in 7.0 mi Calm Calm - N/A Rain Light Rain
4:22 AM 66.2 °F 62.6 °F 88% 30.06 in 5.0 mi Calm Calm - N/A Rain Light Rain
4:41 AM 66.2 °F 62.6 °F 88% 30.04 in 9.0 mi Calm Calm - N/A   Light Drizzle
4:43 AM 66.2 °F 62.6 °F 88% 30.04 in 10.0 mi Calm Calm - N/A   Mostly Cloudy
4:55 AM 65.7 °F 63.3 °F 92% 30.05 in 10.0 mi Calm Calm - 0.01 in   Mostly Cloudy
4:56 AM 66.2 °F 62.6 °F 88% 30.04 in 10.0 mi Calm Calm - N/A   Light Drizzle
5:07 AM 64.4 °F 62.6 °F 94% 30.04 in 10.0 mi WNW 5.8 mph - N/A   Mostly Cloudy
5:17 AM 64.4 °F 62.6 °F 94% 30.04 in 10.0 mi Calm Calm - N/A   Light Drizzle
5:27 AM 64.4 °F 62.6 °F 94% 30.05 in 4.0 mi Calm Calm - N/A Rain Rain
5:41 AM 66.2 °F 62.6 °F 88% 30.05 in 10.0 mi Calm Calm - N/A   Overcast
5:42 AM 66.2 °F 62.6 °F 88% 30.05 in 10.0 mi Calm Calm - N/A   Overcast
5:55 AM 65.5 °F 62.8 °F 91% 30.06 in 10.0 mi Calm Calm - 0.02 in   Light Drizzle
6:08 AM 66.2 °F 62.6 °F 88% 30.06 in 10.0 mi NNW 4.6 mph - N/A   Mostly Cloudy
6:12 AM 66.2 °F 62.6 °F 88% 30.06 in 10.0 mi Calm Calm - N/A Rain Light Rain
8:06 AM 68.0 °F 64.4 °F 88% 30.09 in 10.0 mi North 4.6 mph - N/A   Mostly Cloudy
8:23 AM 68.0 °F 62.6 °F 83% 30.10 in 10.0 mi Calm Calm - N/A   Light Drizzle
8:29 AM 68.0 °F 62.6 °F 83% 30.10 in 4.0 mi ENE 8.1 mph - N/A Rain Light Rain
8:35 AM 68.0 °F 62.6 °F 83% 30.11 in 4.0 mi ENE 6.9 mph - N/A Rain Light Rain
8:40 AM 68.0 °F 62.6 °F 83% 30.11 in 7.0 mi ENE 4.6 mph - N/A Rain Light Rain
8:42 AM 68.0 °F 62.6 °F 83% 30.11 in 10.0 mi East 4.6 mph - N/A   Mostly Cloudy
8:55 AM 68.0 °F 63.1 °F 84% 30.11 in 10.0 mi Calm Calm - 0.01 in   Overcast
8:59 AM 68.0 °F 62.6 °F 83% 30.11 in 10.0 mi NNE 4.6 mph - N/A   Overcast
9:05 AM 68.0 °F 62.6 °F 83% 30.11 in 10.0 mi Calm Calm - N/A   Overcast
9:06 AM 68.0 °F 62.6 °F 83% 30.11 in 10.0 mi Calm Calm - N/A   Light Drizzle
9:16 AM 68.0 °F 62.6 °F 83% 30.11 in 7.0 mi East 6.9 mph - N/A   Light Drizzle
9:17 AM 68.0 °F 62.6 °F 83% 30.12 in 7.0 mi ESE 6.9 mph - N/A   Light Drizzle
9:22 AM 68.0 °F 62.6 °F 83% 30.12 in 8.0 mi ESE 4.6 mph - N/A   Light Drizzle
9:36 AM 68.0 °F 64.4 °F 88% 30.12 in 9.0 mi East 8.1 mph - N/A   Overcast
9:47 AM 68.0 °F 64.4 °F 88% 30.12 in 10.0 mi East 4.6 mph - N/A   Mostly Cloudy
9:51 AM 68.0 °F 64.4 °F 88% 30.12 in 10.0 mi ENE 5.8 mph - N/A   Mostly Cloudy
9:55 AM 68.0 °F 63.7 °F 86% 30.12 in 10.0 mi ENE 3.5 mph - 0.01 in   Mostly Cloudy
10:08 AM 69.8 °F 64.4 °F 83% 30.12 in 10.0 mi NE 3.5 mph - N/A   Light Drizzle
10:13 AM 69.8 °F 62.6 °F 78% 30.12 in 10.0 mi Variable 5.8 mph - N/A   Light Drizzle
10:15 AM 69.8 °F 62.6 °F 78% 30.12 in 10.0 mi ENE 5.8 mph - N/A   Light Drizzle
10:28 AM 69.8 °F 64.4 °F 83% 30.11 in 10.0 mi NNE 5.8 mph - N/A   Mostly Cloudy
10:33 AM 69.8 °F 64.4 °F 83% 30.12 in 8.0 mi NNE 6.9 mph - N/A Rain Light Rain
10:55 AM 69.8 °F 64.9 °F 84% 30.11 in 4.0 mi East 8.1 mph - 0.02 in Rain Light Rain
11:08 AM 69.8 °F 66.2 °F 88% 30.10 in 10.0 mi ENE 8.1 mph - N/A   Mostly Cloudy
11:10 AM 69.8 °F 66.2 °F 88% 30.10 in 10.0 mi East 9.2 mph - N/A   Mostly Cloudy
11:23 AM 71.6 °F 66.2 °F 83% 30.09 in 10.0 mi ENE 12.7 mph - N/A   Light Drizzle
11:24 AM 71.6 °F 66.2 °F 83% 30.09 in 10.0 mi NE 12.7 mph - N/A   Light Drizzle
11:25 AM 71.6 °F 66.2 °F 83% 30.09 in 10.0 mi NE 11.5 mph - N/A   Light Drizzle
11:27 AM 71.6 °F 66.2 °F 83% 30.09 in 10.0 mi NE 11.5 mph - N/A   Light Drizzle
11:29 AM 69.8 °F 66.2 °F 88% 30.08 in 10.0 mi ENE 11.5 mph - N/A   Light Drizzle
11:35 AM 71.6 °F 66.2 °F 83% 30.08 in 10.0 mi ENE 12.7 mph - N/A   Scattered Clouds
11:39 AM 71.6 °F 66.2 °F 83% 30.08 in 7.0 mi East 19.6 mph - N/A Rain Light Rain
11:44 AM 69.8 °F 64.4 °F 83% 30.09 in 5.0 mi East 21.9 mph 27.6 mph N/A Rain Light Rain
11:51 AM 69.8 °F 64.4 °F 83% 30.09 in 7.0 mi East 16.1 mph - N/A Rain Light Rain
11:54 AM 69.8 °F 64.4 °F 83% 30.09 in 9.0 mi ENE 12.7 mph - N/A   Mostly Cloudy
11:55 AM 69.4 °F 63.9 °F 82% 30.09 in 10.0 mi ENE 12.7 mph - 0.00 in   Mostly Cloudy
12:17 PM 71.6 °F 64.4 °F 78% 30.07 in 10.0 mi ENE 15.0 mph - N/A   Light Drizzle
12:39 PM 71.6 °F 64.4 °F 78% 30.07 in 10.0 mi NE 6.9 mph - N/A   Scattered Clouds
12:50 PM 71.6 °F 64.4 °F 78% 30.06 in 9.0 mi East 9.2 mph - N/A Rain Light Rain
12:55 PM 72.3 °F 64.4 °F 76% 30.06 in 9.0 mi ENE 11.5 mph - 0.00 in Rain Light Rain
1:01 PM 71.6 °F 64.4 °F 78% 30.06 in 10.0 mi East 10.4 mph - N/A   Mostly Cloudy
1:05 PM 71.6 °F 64.4 °F 78% 30.06 in 9.0 mi East 11.5 mph - N/A   Light Drizzle
1:16 PM 71.6 °F 64.4 °F 78% 30.06 in 10.0 mi East 8.1 mph - N/A   Mostly Cloudy
1:55 PM 74.3 °F 61.3 °F 64% 30.04 in 10.0 mi ENE 11.5 mph - 0.00 in   Partly Cloudy
2:55 PM 75.6 °F 59.4 °F 57% 30.02 in 10.0 mi ENE 11.5 mph - N/A   Partly Cloudy
3:55 PM 74.3 °F 59.5 °F 60% 30.02 in 10.0 mi ENE 11.5 mph - N/A   Scattered Clouds
4:55 PM 72.7 °F 60.3 °F 65% 30.04 in 10.0 mi East 5.8 mph - N/A   Scattered Clouds
5:44 PM 71.6 °F 60.8 °F 69% 30.05 in 10.0 mi NE 11.5 mph - N/A   Light Drizzle
5:53 PM 71.6 °F 62.6 °F 73% 30.05 in 10.0 mi NE 8.1 mph - N/A   Scattered Clouds
5:55 PM 71.1 °F 61.7 °F 72% 30.05 in 10.0 mi NE 10.4 mph - 0.00 in   Scattered Clouds
6:42 PM 69.8 °F 60.8 °F 73% 30.05 in 10.0 mi NE 8.1 mph - N/A   Light Drizzle
6:52 PM 69.8 °F 60.8 °F 73% 30.06 in 10.0 mi NNE 6.9 mph - N/A   Partly Cloudy
6:55 PM 70.3 °F 61.3 °F 73% 30.06 in 10.0 mi NNE 6.9 mph - 0.00 in   Partly Cloudy
7:55 PM 70.2 °F 59.9 °F 70% 30.07 in 10.0 mi NNE 4.6 mph - N/A   Clear
8:11 PM 69.8 °F 60.8 °F 73% 30.08 in 10.0 mi NNE 6.9 mph - N/A   Light Drizzle
8:31 PM 69.8 °F 60.8 °F 73% 30.09 in 10.0 mi ENE 4.6 mph - N/A   Scattered Clouds
8:35 PM 69.8 °F 60.8 °F 73% 30.09 in 10.0 mi NE 4.6 mph - N/A   Light Drizzle
8:45 PM 69.8 °F 62.6 °F 78% 30.09 in 10.0 mi North 4.6 mph - N/A   Partly Cloudy
8:49 PM 69.8 °F 62.6 °F 78% 30.09 in 10.0 mi North 4.6 mph - N/A   Light Drizzle
8:55 PM 69.1 °F 62.1 °F 78% 30.09 in 10.0 mi North 4.6 mph - 0.00 in   Light Drizzle
9:41 PM 66.2 °F 62.6 °F 88% 30.09 in 10.0 mi NNW 3.5 mph - N/A   Mostly Cloudy
9:44 PM 66.2 °F 62.6 °F 88% 30.09 in 10.0 mi NNW 4.6 mph - N/A   Drizzle
9:55 PM 66.2 °F 62.4 °F 88% 30.09 in 10.0 mi West 3.5 mph - 0.00 in   Light Drizzle
10:16 PM 66.2 °F 62.6 °F 88% 30.09 in 10.0 mi NNW 3.5 mph - N/A   Scattered Clouds
10:19 PM 66.2 °F 62.6 °F 88% 30.08 in 10.0 mi NNW 4.6 mph - N/A   Light Drizzle
10:28 PM 66.2 °F 62.6 °F 88% 30.09 in 10.0 mi NE 4.6 mph - N/A   Scattered Clouds
10:55 PM 69.4 °F 61.9 °F 77% 30.08 in 10.0 mi North 4.6 mph - 0.00 in   Mostly Cloudy
10:58 PM 69.8 °F 62.6 °F 78% 30.08 in 10.0 mi Variable 3.5 mph - N/A   Light Drizzle
11:07 PM 69.8 °F 62.6 °F 78% 30.08 in 10.0 mi Calm Calm - N/A   Mostly Cloudy
11:08 PM 69.8 °F 62.6 °F 78% 30.08 in 10.0 mi Calm Calm - N/A   Mostly Cloudy
11:14 PM 69.8 °F 62.6 °F 78% 30.08 in 10.0 mi Calm Calm - N/A   Overcast
11:18 PM 68.0 °F 62.6 °F 83% 30.08 in 10.0 mi Calm Calm - N/A   Light Drizzle
11:25 PM 68.0 °F 62.6 °F 83% 30.08 in 10.0 mi Calm Calm - N/A   Light Drizzle
11:34 PM 68.0 °F 62.6 °F 83% 30.07 in 9.0 mi Calm Calm - N/A   Light Drizzle
11:55 PM 68.5 °F 63.0 °F 82% 30.07 in 10.0 mi North 3.5 mph - 0.01 in   Light Drizzle
11:56 PM 68.0 °F 62.6 °F 83% 30.06 in 10.0 mi North 3.5 mph - N/A   Partly Cloudy